COSMOS 1275 DEB, 13024

Orbit data source: Space-Track

COSMOS 1275 DEB, 13024 is space debris in LEO originally from a launch on Thu, 04 Jun 1981 UTC launched from the Plesetsk Missile And Space Complex (PKMTR). Debris objects in space refer to the collection of defunct objects orbiting the Earth. Examples of debris include non-operational satellites, rocket bodies, and fragments generated from explosions, collisions, or faulty payload assembly.

Loading next visibility...
Identifier
13024, 1981-053EW
Orbit
LEO
Country
Flag of CISCIS
Related business
Manufacturer
Unknown
Mission
Spacecraft
Bus & Motor
Unknown
Mass
Unknown
Launch date (UTC)
1981-06-04 (44 years ago)
Launch vehicle
Unknown
Launch site
Plesetsk Missile And Space Complex (PKMTR)
Object type
Payload
Rocket body
Debris
Shape & HBR
Unknown shape, 0.1 m
Radar Cross Section
Small (<0.1 m²)

Expand to show TLE details & history
Last TLE update: 13 hours ago

TLE from 13 hours ago
0 COSMOS 1275 DEB
1 13024U 81053EW  25298.86403911  .00002375  00000-0  14131-2 0  9994
2 13024  82.9195  81.4681 0047392  47.7694 104.0854 14.06457573227382
Epoch: 2025-10-25T20:44Z
TLE epoch observation values (Epoch: 2025-10-25T20:44:12.979Z)
Latitude
27.4303°
Longitude
-87.75132°
Altitude
883.422 km
Speed
7.409 km/s
True Right ascension
17h 11m 09s
True Declination
27° 17' 33"
Sunlit
Object was in daylight at epoch
Visualization orbit readout
Latitude
Unknown
Longitude
Unknown
Altitude
Unknown
Speed
Unknown
Apparent Right ascension
Unknown
Apparent Declination
Unknown
Sunlit
N/A
Visualization observer readout
Local Sidereal Time
04:57:12
Azimuth
Unknown
Elevation
Unknown
Doppler factor
Unknown
Orbital elements
Apogee altitude
902.969 km
Perigee altitude
834.282 km
Semi-major axis
7,246.762 km
Eccentricity
0.00474
Inclination
82.9195°
RAAN
81.4681°
Arg. of periapsis
47.7694°
True anomaly
104.61138°
Mean anomaly
104.0854°
Eccentric anomaly
104.34847°
Mean motion
3.51825 °/min
Orbital period
102.32 mins
BSTAR
0.0014131
Loading maneuver chart data...
Computing Atmospheric mass density...

Documentation

Showing up to 5 results
|